TimeMDT,TemperatureF,Dew PointF,Humidity,Sea Level PressureIn,VisibilityMPH,Wind Direction,Wind SpeedMPH,Gust SpeedMPH,PrecipitationIn,Events,Conditions,WindDirDegrees,DateUTC
12:15 AM,42.8,17.6,36,29.64,10.0,South,12.7,-,N/A,,Partly Cloudy,190,2013-03-17 06:15:00
12:35 AM,42.8,17.6,36,29.62,10.0,South,12.7,-,N/A,,Clear,190,2013-03-17 06:35:00
12:55 AM,42.8,17.6,36,29.61,10.0,South,9.2,-,N/A,,Clear,170,2013-03-17 06:55:00
1:16 AM,42.8,17.6,36,29.59,10.0,SSE,10.4,18.4,N/A,,Clear,160,2013-03-17 07:16:00
1:35 AM,39.2,15.8,39,29.57,10.0,SSE,9.2,-,N/A,,Clear,160,2013-03-17 07:35:00
1:55 AM,37.4,15.8,41,29.57,10.0,South,10.4,-,N/A,,Clear,170,2013-03-17 07:55:00
2:15 AM,39.2,17.6,42,29.56,10.0,South,9.2,-,N/A,,Clear,190,2013-03-17 08:15:00
2:35 AM,39.2,17.6,42,29.54,10.0,SSW,11.5,-,N/A,,Clear,200,2013-03-17 08:35:00
2:55 AM,39.2,19.4,45,29.54,10.0,SSW,8.1,-,N/A,,Clear,210,2013-03-17 08:55:00
3:15 AM,39.2,19.4,45,29.54,10.0,Calm,Calm,-,N/A,,Clear,0,2013-03-17 09:15:00
3:55 AM,39.2,24.8,56,29.51,10.0,Calm,Calm,-,N/A,,Clear,0,2013-03-17 09:55:00
4:15 AM,39.2,24.8,56,29.48,10.0,NNE,4.6,-,N/A,,Clear,30,2013-03-17 10:15:00
4:35 AM,39.2,24.8,56,29.48,10.0,NNW,3.5,-,N/A,,Clear,330,2013-03-17 10:35:00
4:55 AM,39.2,28.4,65,29.46,10.0,WNW,3.5,17.3,N/A,,Clear,300,2013-03-17 10:55:00
5:15 AM,39.2,28.4,65,29.45,10.0,WSW,13.8,19.6,N/A,,Clear,250,2013-03-17 11:15:00
5:35 AM,39.2,28.4,65,29.43,10.0,WSW,18.4,29.9,N/A,,Clear,240,2013-03-17 11:35:00
5:55 AM,39.2,28.4,65,29.43,10.0,WSW,18.4,27.6,N/A,,Clear,240,2013-03-17 11:55:00
6:15 AM,39.2,26.6,61,29.41,10.0,SW,20.7,29.9,N/A,,Clear,230,2013-03-17 12:15:00
6:35 AM,39.2,26.6,61,29.40,10.0,WSW,20.7,32.2,N/A,,Clear,240,2013-03-17 12:35:00
6:55 AM,39.2,28.4,65,29.40,10.0,West,15.0,32.2,N/A,,Clear,270,2013-03-17 12:55:00
7:15 AM,39.2,26.6,61,29.41,10.0,NW,11.5,25.3,N/A,,Clear,310,2013-03-17 13:15:00
7:35 AM,37.4,24.8,60,29.43,10.0,NW,17.3,24.2,N/A,,Clear,320,2013-03-17 13:35:00
7:55 AM,39.2,24.8,56,29.43,10.0,NNE,6.9,25.3,N/A,,Mostly Cloudy,30,2013-03-17 13:55:00
8:15 AM,39.2,19.4,45,29.44,10.0,NE,9.2,20.7,N/A,,Overcast,50,2013-03-17 14:15:00
8:35 AM,39.2,17.6,42,29.45,10.0,East,13.8,17.3,N/A,,Overcast,90,2013-03-17 14:35:00
8:55 AM,35.6,28.4,75,29.47,10.0,NNE,17.3,20.7,N/A,,Overcast,20,2013-03-17 14:55:00
9:35 AM,33.8,28.4,81,29.48,10.0,NNW,4.6,-,N/A,,Mostly Cloudy,330,2013-03-17 15:35:00
9:55 AM,39.2,17.6,42,29.47,10.0,WSW,16.1,31.1,N/A,,Mostly Cloudy,240,2013-03-17 15:55:00
10:35 AM,37.4,17.6,45,29.48,10.0,NW,9.2,25.3,N/A,,Mostly Cloudy,320,2013-03-17 16:35:00
10:55 AM,33.8,26.6,75,29.49,10.0,NNE,15.0,19.6,N/A,,Overcast,20,2013-03-17 16:55:00
11:15 AM,33.8,26.6,75,29.50,10.0,NNE,13.8,-,N/A,,Overcast,30,2013-03-17 17:15:00
11:35 AM,33.8,26.6,75,29.50,2.5,NNE,10.4,-,N/A,,Mostly Cloudy,30,2013-03-17 17:35:00
11:55 AM,33.8,26.6,75,29.51,3.0,NNE,17.3,20.7,N/A,,Overcast,30,2013-03-17 17:55:00
12:15 PM,32.0,28.4,87,29.52,2.5,NNE,15.0,-,N/A,,Mostly Cloudy,20,2013-03-17 18:15:00
12:35 PM,30.2,24.8,80,29.54,9.0,NNE,15.0,25.3,N/A,,Overcast,20,2013-03-17 18:35:00
12:55 PM,28.4,24.8,86,29.56,0.8,East,9.2,25.3,N/A,,Overcast,80,2013-03-17 18:55:00
1:15 PM,28.4,24.8,86,29.57,2.0,North,5.8,-,N/A,,Overcast,350,2013-03-17 19:15:00
1:35 PM,33.8,21.2,60,29.57,10.0,West,15.0,19.6,N/A,,Mostly Cloudy,280,2013-03-17 19:35:00
1:55 PM,33.8,15.8,48,29.57,10.0,West,17.3,25.3,N/A,,Mostly Cloudy,260,2013-03-17 19:55:00
2:15 PM,35.6,15.8,44,29.58,10.0,West,17.3,25.3,N/A,,Overcast,260,2013-03-17 20:15:00
2:35 PM,35.6,12.2,38,29.58,10.0,West,15.0,27.6,N/A,,Overcast,270,2013-03-17 20:35:00
3:15 PM,37.4,6.8,28,29.61,10.0,WNW,27.6,36.8,N/A,,Mostly Cloudy,300,2013-03-17 21:15:00
3:36 PM,35.6,14.0,41,29.62,10.0,West,18.4,27.6,N/A,,Mostly Cloudy,260,2013-03-17 21:36:00
4:15 PM,32.0,12.2,44,29.66,10.0,West,13.8,27.6,N/A,,Mostly Cloudy,270,2013-03-17 22:15:00
4:35 PM,33.8,15.8,48,29.67,10.0,WSW,12.7,17.3,N/A,,Scattered Clouds,250,2013-03-17 22:35:00
4:55 PM,32.0,15.8,51,29.69,10.0,WNW,17.3,24.2,N/A,,Scattered Clouds,290,2013-03-17 22:55:00
5:15 PM,32.0,12.2,44,29.68,10.0,West,11.5,20.7,N/A,,Scattered Clouds,270,2013-03-17 23:15:00
5:35 PM,32.0,12.2,44,29.69,10.0,WSW,16.1,23.0,N/A,,Clear,250,2013-03-17 23:35:00
5:55 PM,33.8,10.4,38,29.70,10.0,West,11.5,24.2,N/A,,Clear,270,2013-03-17 23:55:00
6:15 PM,32.0,10.4,41,29.70,10.0,West,13.8,20.7,N/A,,Partly Cloudy,260,2013-03-18 00:15:00
6:35 PM,32.0,8.6,38,29.72,10.0,West,13.8,23.0,N/A,,Scattered Clouds,270,2013-03-18 00:35:00
6:55 PM,30.2,8.6,40,29.72,10.0,West,8.1,23.0,N/A,,Partly Cloudy,260,2013-03-18 00:55:00
7:15 PM,30.2,10.4,44,29.73,10.0,West,6.9,-,N/A,,Clear,280,2013-03-18 01:15:00
7:35 PM,30.2,8.6,40,29.73,10.0,West,11.5,-,N/A,,Partly Cloudy,270,2013-03-18 01:35:00
7:55 PM,30.2,8.6,40,29.75,10.0,West,5.8,-,N/A,,Scattered Clouds,270,2013-03-18 01:55:00
8:15 PM,30.2,6.8,37,29.74,10.0,ENE,5.8,-,N/A,,Mostly Cloudy,60,2013-03-18 02:15:00
8:35 PM,30.2,8.6,40,29.75,10.0,West,3.5,-,N/A,,Scattered Clouds,270,2013-03-18 02:35:00
8:55 PM,30.2,6.8,37,29.76,10.0,WSW,5.8,-,N/A,,Clear,250,2013-03-18 02:55:00
9:15 PM,30.2,6.8,37,29.77,10.0,West,6.9,-,N/A,,Clear,280,2013-03-18 03:15:00
9:35 PM,30.2,6.8,37,29.78,10.0,West,10.4,16.1,N/A,,Clear,280,2013-03-18 03:35:00
9:55 PM,28.4,6.8,40,29.79,10.0,NW,4.6,-,N/A,,Clear,320,2013-03-18 03:55:00
10:35 PM,28.4,10.4,47,29.80,10.0,West,6.9,18.4,N/A,,Clear,270,2013-03-18 04:35:00
10:55 PM,28.4,8.6,43,29.80,10.0,West,12.7,21.9,N/A,,Clear,270,2013-03-18 04:55:00
11:15 PM,28.4,8.6,43,29.81,10.0,West,10.4,21.9,N/A,,Clear,260,2013-03-18 05:15:00
11:35 PM,28.4,8.6,43,29.82,10.0,NW,9.2,-,N/A,,Clear,310,2013-03-18 05:35:00
11:55 PM,26.6,10.4,51,29.83,10.0,WNW,5.8,-,N/A,,Clear,290,2013-03-18 05:55:00